Wetterdaten: Mittwoch, 02.10.2013
Datum Zeit Temperatur Luftfeuchte Luftdruck Regen Wind Richtung Richtung Taupunkt Windchill Windben
02.10.2013 00:00 7,2 C 94 % 1016,2 hPa 0,0 l/m 0,2 km/h (0 Bft) N-NW 337 6,3 C 7,3 C 0,0 km/h (0 Bft)
02.10.2013 00:05 7,2 C 94 % 1016,0 hPa 0,0 l/m 0,2 km/h (0 Bft) NW 315 6,3 C 7,3 C 0,0 km/h (0 Bft)
02.10.2013 00:10 7,2 C 94 % 1016,0 hPa 0,0 l/m 0,0 km/h (0 Bft) N 360 6,3 C 7,3 C 0,0 km/h (0 Bft)
02.10.2013 00:15 7,3 C 94 % 1016,0 hPa 0,0 l/m 0,0 km/h (0 Bft) NW 315 6,4 C 7,3 C 0,0 km/h (0 Bft)
02.10.2013 00:20 7,3 C 94 % 1016,0 hPa 0,0 l/m 0,0 km/h (0 Bft) N-NW 337 6,4 C 7,4 C 0,0 km/h (0 Bft)
02.10.2013 00:25 7,4 C 94 % 1016,2 hPa 0,0 l/m 0,2 km/h (0 Bft) W-NW 292 6,5 C 7,5 C 3,1 km/h (1 Bft)
02.10.2013 00:30 7,4 C 94 % 1016,2 hPa 0,0 l/m 0,3 km/h (0 Bft) W-NW 292 6,5 C 7,5 C 0,0 km/h (0 Bft)
02.10.2013 00:35 7,4 C 94 % 1016,2 hPa 0,0 l/m 0,5 km/h (0 Bft) N-NW 337 6,5 C 7,5 C 1,8 km/h (1 Bft)
02.10.2013 00:40 7,4 C 94 % 1016,2 hPa 0,0 l/m 0,6 km/h (0 Bft) W 270 6,5 C 7,5 C 0,0 km/h (0 Bft)
02.10.2013 00:45 7,4 C 94 % 1016,2 hPa 0,0 l/m 1,4 km/h (1 Bft) W-NW 292 6,5 C 7,5 C 4,2 km/h (1 Bft)
02.10.2013 00:50 7,4 C 94 % 1016,2 hPa 0,0 l/m 1,3 km/h (1 Bft) N-NW 337 6,5 C 7,5 C 2,4 km/h (1 Bft)
02.10.2013 00:55 7,4 C 94 % 1016,2 hPa 0,0 l/m 1,1 km/h (1 Bft) W-NW 292 6,5 C 7,5 C 0,0 km/h (0 Bft)
02.10.2013 01:00 7,3 C 94 % 1016,2 hPa 0,0 l/m 1,6 km/h (1 Bft) N-NW 337 6,4 C 7,5 C 4,0 km/h (1 Bft)
02.10.2013 01:05 7,3 C 94 % 1016,1 hPa 0,0 l/m 1,1 km/h (1 Bft) N-NW 337 6,4 C 7,5 C 4,3 km/h (1 Bft)
02.10.2013 01:10 7,2 C 94 % 1016,1 hPa 0,0 l/m 1,3 km/h (1 Bft) N-NO 22 6,3 C 7,4 C 2,1 km/h (1 Bft)
02.10.2013 01:15 7,1 C 94 % 1016,1 hPa 0,0 l/m 2,1 km/h (1 Bft) N 360 6,2 C 7,3 C 5,6 km/h (1 Bft)
02.10.2013 01:20 7,0 C 94 % 1016,1 hPa 0,0 l/m 1,9 km/h (1 Bft) N 360 6,1 C 7,2 C 1,6 km/h (1 Bft)
02.10.2013 01:25 6,9 C 94 % 1016,1 hPa 0,0 l/m 1,4 km/h (1 Bft) N-NW 337 6,0 C 7,0 C 4,5 km/h (1 Bft)
02.10.2013 01:30 6,8 C 94 % 1016,1 hPa 0,0 l/m 1,4 km/h (1 Bft) N 360 5,9 C 6,9 C 3,1 km/h (1 Bft)
02.10.2013 01:35 6,7 C 94 % 1016,1 hPa 0,0 l/m 2,4 km/h (1 Bft) NW 315 5,8 C 6,9 C 6,1 km/h (2 Bft)
02.10.2013 01:40 6,7 C 94 % 1016,1 hPa 0,0 l/m 2,3 km/h (1 Bft) N-NW 337 5,8 C 6,9 C 2,3 km/h (1 Bft)
02.10.2013 01:45 6,7 C 94 % 1016,1 hPa 0,0 l/m 1,9 km/h (1 Bft) NW 315 5,8 C 6,9 C 4,8 km/h (1 Bft)
02.10.2013 01:50 6,7 C 94 % 1016,1 hPa 0,0 l/m 1,9 km/h (1 Bft) NW 315 5,8 C 6,9 C 1,6 km/h (1 Bft)
02.10.2013 01:55 6,8 C 95 % 1016,1 hPa 0,0 l/m 1,8 km/h (1 Bft) N 360 6,1 C 7,0 C 4,8 km/h (1 Bft)
02.10.2013 02:00 6,8 C 95 % 1016,1 hPa 0,0 l/m 1,6 km/h (1 Bft) N-NW 337 6,1 C 7,0 C 1,9 km/h (1 Bft)
02.10.2013 02:05 6,8 C 95 % 1016,2 hPa 0,0 l/m 1,6 km/h (1 Bft) N-NW 337 6,1 C 6,9 C 1,8 km/h (1 Bft)
02.10.2013 02:10 6,7 C 95 % 1016,2 hPa 0,0 l/m 1,0 km/h (0 Bft) N-NO 22 6,0 C 6,9 C 0,0 km/h (0 Bft)
02.10.2013 02:15 6,7 C 95 % 1016,2 hPa 0,0 l/m 0,8 km/h (0 Bft) N-NO 22 6,0 C 6,9 C 0,0 km/h (0 Bft)
02.10.2013 02:20 6,7 C 95 % 1016,2 hPa 0,0 l/m 0,8 km/h (0 Bft) N 360 6,0 C 6,9 C 0,0 km/h (0 Bft)
02.10.2013 02:25 6,7 C 95 % 1016,6 hPa 0,0 l/m 0,5 km/h (0 Bft) N 360 6,0 C 6,9 C 0,0 km/h (0 Bft)
02.10.2013 02:30 6,8 C 95 % 1016,6 hPa 0,0 l/m 0,5 km/h (0 Bft) W-NW 292 6,1 C 6,9 C 0,0 km/h (0 Bft)
02.10.2013 02:35 6,9 C 95 % 1016,6 hPa 0,0 l/m 0,2 km/h (0 Bft) W 270 6,2 C 6,9 C 0,0 km/h (0 Bft)
02.10.2013 02:40 6,9 C 95 % 1016,6 hPa 0,0 l/m 0,2 km/h (0 Bft) W 270 6,2 C 7,0 C 1,8 km/h (1 Bft)
02.10.2013 02:45 6,9 C 95 % 1016,5 hPa 0,0 l/m 0,2 km/h (0 Bft) W-NW 292 6,2 C 7,0 C 0,0 km/h (0 Bft)
02.10.2013 02:50 6,8 C 95 % 1016,5 hPa 0,0 l/m 0,2 km/h (0 Bft) W 270 6,1 C 7,0 C 0,0 km/h (0 Bft)
02.10.2013 02:55 6,7 C 95 % 1016,5 hPa 0,0 l/m 0,0 km/h (0 Bft) W 270 6,0 C 6,9 C 0,0 km/h (0 Bft)
02.10.2013 03:00 6,7 C 95 % 1016,5 hPa 0,0 l/m 0,0 km/h (0 Bft) NW 315 6,0 C 6,9 C 0,0 km/h (0 Bft)
02.10.2013 03:05 6,5 C 95 % 1016,5 hPa 0,0 l/m 0,0 km/h (0 Bft) N 360 5,8 C 6,7 C 0,0 km/h (0 Bft)
02.10.2013 03:10 6,5 C 95 % 1016,5 hPa 0,0 l/m 0,0 km/h (0 Bft) W-NW 292 5,8 C 6,6 C 0,0 km/h (0 Bft)
02.10.2013 03:15 6,5 C 95 % 1016,5 hPa 0,0 l/m 0,6 km/h (0 Bft) N-NW 337 5,8 C 6,6 C 2,1 km/h (1 Bft)
02.10.2013 03:20 6,3 C 95 % 1016,5 hPa 0,0 l/m 1,4 km/h (1 Bft) N-NO 22 5,6 C 6,6 C 2,3 km/h (1 Bft)
02.10.2013 03:25 6,1 C 95 % 1016,6 hPa 0,0 l/m 1,3 km/h (1 Bft) N 360 5,4 C 6,4 C 4,5 km/h (1 Bft)
02.10.2013 03:30 6,0 C 95 % 1016,6 hPa 0,0 l/m 1,3 km/h (1 Bft) NW 315 5,3 C 6,4 C 1,6 km/h (1 Bft)
02.10.2013 03:35 5,9 C 96 % 1016,6 hPa 0,0 l/m 2,3 km/h (1 Bft) N-NW 337 5,3 C 6,2 C 3,7 km/h (1 Bft)
02.10.2013 03:40 5,8 C 96 % 1016,6 hPa 0,0 l/m 2,6 km/h (1 Bft) W-NW 292 5,2 C 6,1 C 1,6 km/h (1 Bft)
02.10.2013 03:45 5,9 C 96 % 1016,4 hPa 0,0 l/m 1,8 km/h (1 Bft) N-NW 337 5,3 C 6,0 C 1,9 km/h (1 Bft)
02.10.2013 03:50 6,0 C 95 % 1016,4 hPa 0,0 l/m 0,6 km/h (0 Bft) N-NO 22 5,3 C 6,0 C 0,0 km/h (0 Bft)
02.10.2013 03:55 6,0 C 95 % 1016,4 hPa 0,0 l/m 0,0 km/h (0 Bft) W-NW 292 5,3 C 6,1 C 0,0 km/h (0 Bft)
02.10.2013 04:00 6,1 C 95 % 1016,4 hPa 0,0 l/m 0,0 km/h (0 Bft) N 360 5,4 C 6,2 C 0,0 km/h (0 Bft)
02.10.2013 04:05 6,2 C 95 % 1016,6 hPa 0,0 l/m 0,5 km/h (0 Bft) W-SW 247 5,5 C 6,3 C 2,9 km/h (1 Bft)
02.10.2013 04:10 6,2 C 95 % 1016,6 hPa 0,0 l/m 1,1 km/h (1 Bft) NO 45 5,5 C 6,4 C 1,6 km/h (1 Bft)
02.10.2013 04:15 6,2 C 95 % 1016,6 hPa 0,0 l/m 1,6 km/h (1 Bft) NW 315 5,5 C 6,4 C 0,0 km/h (0 Bft)
02.10.2013 04:20 6,3 C 95 % 1016,6 hPa 0,0 l/m 1,3 km/h (1 Bft) N 360 5,6 C 6,4 C 1,9 km/h (1 Bft)
02.10.2013 04:25 6,3 C 95 % 1016,7 hPa 0,0 l/m 0,5 km/h (0 Bft) N-NW 337 5,6 C 6,5 C 0,0 km/h (0 Bft)
02.10.2013 04:30 6,4 C 95 % 1016,7 hPa 0,0 l/m 0,5 km/h (0 Bft) N 360 5,7 C 6,6 C 0,0 km/h (0 Bft)
02.10.2013 04:35 6,4 C 95 % 1016,7 hPa 0,0 l/m 0,3 km/h (0 Bft) N 360 5,7 C 6,6 C 0,0 km/h (0 Bft)
02.10.2013 04:40 6,4 C 95 % 1016,7 hPa 0,0 l/m 0,2 km/h (0 Bft) NO 45 5,7 C 6,6 C 0,0 km/h (0 Bft)
02.10.2013 04:45 6,4 C 95 % 1016,5 hPa 0,0 l/m 0,3 km/h (0 Bft) W-NW 292 5,7 C 6,6 C 0,0 km/h (0 Bft)
02.10.2013 04:50 6,4 C 95 % 1016,5 hPa 0,0 l/m 0,2 km/h (0 Bft) W-NW 292 5,7 C 6,6 C 0,0 km/h (0 Bft)
02.10.2013 04:55 6,4 C 95 % 1016,5 hPa 0,0 l/m 0,0 km/h (0 Bft) W-NW 292 5,7 C 6,6 C 0,0 km/h (0 Bft)
02.10.2013 05:00 6,4 C 95 % 1016,5 hPa 0,0 l/m 0,2 km/h (0 Bft) N 360 5,7 C 6,6 C 3,1 km/h (1 Bft)
02.10.2013 05:05 6,4 C 95 % 1016,5 hPa 0,0 l/m 0,8 km/h (0 Bft) N 360 5,7 C 6,6 C 3,7 km/h (1 Bft)
02.10.2013 05:10 6,4 C 95 % 1016,5 hPa 0,0 l/m 0,8 km/h (0 Bft) O-SO 112 5,7 C 6,6 C 0,0 km/h (0 Bft)
02.10.2013 05:15 6,4 C 95 % 1016,5 hPa 0,0 l/m 1,0 km/h (0 Bft) W-SW 247 5,7 C 6,6 C 2,6 km/h (1 Bft)
02.10.2013 05:20 6,4 C 95 % 1016,5 hPa 0,0 l/m 1,6 km/h (1 Bft) NW 315 5,7 C 6,6 C 2,3 km/h (1 Bft)
02.10.2013 05:25 6,4 C 95 % 1016,6 hPa 0,0 l/m 1,9 km/h (1 Bft) W 270 5,7 C 6,5 C 0,0 km/h (0 Bft)
02.10.2013 05:30 6,4 C 95 % 1016,6 hPa 0,0 l/m 1,6 km/h (1 Bft) N-NW 337 5,7 C 6,5 C 1,6 km/h (1 Bft)
02.10.2013 05:35 6,3 C 95 % 1016,6 hPa 0,0 l/m 1,4 km/h (1 Bft) N 360 5,6 C 6,4 C 2,3 km/h (1 Bft)
02.10.2013 05:40 6,3 C 95 % 1016,6 hPa 0,0 l/m 1,4 km/h (1 Bft) N-NW 337 5,6 C 6,4 C 2,9 km/h (1 Bft)
02.10.2013 05:45 6,3 C 95 % 1016,6 hPa 0,0 l/m 1,6 km/h (1 Bft) N-NW 337 5,6 C 6,4 C 2,7 km/h (1 Bft)
02.10.2013 05:50 6,3 C 95 % 1016,6 hPa 0,0 l/m 2,3 km/h (1 Bft) W 270 5,6 C 6,4 C 0,0 km/h (0 Bft)
02.10.2013 05:55 6,3 C 95 % 1016,6 hPa 0,0 l/m 2,9 km/h (1 Bft) W 270 5,6 C 6,4 C 4,8 km/h (1 Bft)
02.10.2013 06:00 6,3 C 95 % 1016,6 hPa 0,0 l/m 2,6 km/h (1 Bft) NW 315 5,6 C 6,4 C 3,2 km/h (1 Bft)
02.10.2013 06:05 6,3 C 95 % 1016,6 hPa 0,0 l/m 2,4 km/h (1 Bft) N-NW 337 5,6 C 6,4 C 0,0 km/h (0 Bft)
02.10.2013 06:10 6,3 C 95 % 1016,6 hPa 0,0 l/m 1,8 km/h (1 Bft) NW 315 5,6 C 6,4 C 2,6 km/h (1 Bft)
02.10.2013 06:15 6,3 C 95 % 1016,6 hPa 0,0 l/m 0,8 km/h (0 Bft) W-NW 292 5,6 C 6,4 C 0,0 km/h (0 Bft)
02.10.2013 06:20 6,4 C 95 % 1016,6 hPa 0,0 l/m 0,6 km/h (0 Bft) N-NO 22 5,7 C 6,4 C 0,0 km/h (0 Bft)
02.10.2013 06:25 6,4 C 95 % 1016,6 hPa 0,0 l/m 0,5 km/h (0 Bft) W-NW 292 5,7 C 6,4 C 7,7 km/h (2 Bft)
02.10.2013 06:30 6,4 C 95 % 1016,6 hPa 0,0 l/m 1,4 km/h (1 Bft) W-NW 292 5,7 C 6,5 C 1,8 km/h (1 Bft)
02.10.2013 06:35 6,3 C 95 % 1016,6 hPa 0,0 l/m 2,7 km/h (1 Bft) N 360 5,6 C 6,5 C 3,4 km/h (1 Bft)
02.10.2013 06:40 6,3 C 95 % 1016,6 hPa 0,0 l/m 2,6 km/h (1 Bft) N 360 5,6 C 6,5 C 3,1 km/h (1 Bft)
02.10.2013 06:45 6,3 C 95 % 1017,1 hPa 0,0 l/m 1,4 km/h (1 Bft) NW 315 5,6 C 6,5 C 0,0 km/h (0 Bft)
02.10.2013 06:50 6,2 C 95 % 1017,1 hPa 0,0 l/m 1,3 km/h (1 Bft) N 360 5,5 C 6,5 C 4,5 km/h (1 Bft)
02.10.2013 06:55 6,2 C 95 % 1017,1 hPa 0,0 l/m 1,8 km/h (1 Bft) SO 135 5,5 C 6,4 C 3,1 km/h (1 Bft)
02.10.2013 07:00 6,2 C 95 % 1017,1 hPa 0,0 l/m 2,1 km/h (1 Bft) N 360 5,5 C 6,4 C 3,4 km/h (1 Bft)
02.10.2013 07:05 6,2 C 95 % 1017,2 hPa 0,0 l/m 2,1 km/h (1 Bft) W-NW 292 5,5 C 6,4 C 2,9 km/h (1 Bft)
02.10.2013 07:10 6,2 C 95 % 1017,2 hPa 0,0 l/m 1,6 km/h (1 Bft) W-NW 292 5,5 C 6,4 C 2,3 km/h (1 Bft)
02.10.2013 07:15 6,1 C 95 % 1017,2 hPa 0,0 l/m 1,1 km/h (1 Bft) W-NW 292 5,4 C 6,4 C 0,0 km/h (0 Bft)
02.10.2013 07:20 6,2 C 95 % 1017,2 hPa 0,0 l/m 1,4 km/h (1 Bft) W-NW 292 5,5 C 6,4 C 2,3 km/h (1 Bft)
02.10.2013 07:25 6,2 C 95 % 1017,2 hPa 0,0 l/m 1,6 km/h (1 Bft) NW 315 5,5 C 6,4 C 1,6 km/h (1 Bft)
02.10.2013 07:30 6,2 C 95 % 1017,2 hPa 0,0 l/m 1,4 km/h (1 Bft) NW 315 5,5 C 6,4 C 2,1 km/h (1 Bft)
02.10.2013 07:35 6,2 C 95 % 1017,2 hPa 0,0 l/m 1,1 km/h (1 Bft) W-NW 292 5,5 C 6,4 C 1,8 km/h (1 Bft)
02.10.2013 07:40 6,2 C 95 % 1017,2 hPa 0,0 l/m 1,6 km/h (1 Bft) W-NW 292 5,5 C 6,4 C 3,4 km/h (1 Bft)
02.10.2013 07:45 6,2 C 95 % 1017,4 hPa 0,0 l/m 1,8 km/h (1 Bft) N-NW 337 5,5 C 6,4 C 4,8 km/h (1 Bft)
02.10.2013 07:50 6,2 C 95 % 1017,4 hPa 0,0 l/m 2,1 km/h (1 Bft) N 360 5,5 C 6,4 C 2,3 km/h (1 Bft)
02.10.2013 07:55 6,3 C 95 % 1017,4 hPa 0,0 l/m 1,6 km/h (1 Bft) W-NW 292 5,6 C 6,4 C 1,9 km/h (1 Bft)
02.10.2013 08:00 6,3 C 95 % 1017,4 hPa 0,0 l/m 1,4 km/h (1 Bft) NW 315 5,6 C 6,4 C 2,4 km/h (1 Bft)
02.10.2013 08:05 6,3 C 95 % 1017,7 hPa 0,0 l/m 1,8 km/h (1 Bft) N 360 5,6 C 6,5 C 0,0 km/h (0 Bft)
02.10.2013 08:10 6,3 C 95 % 1017,7 hPa 0,0 l/m 1,6 km/h (1 Bft) W-NW 292 5,6 C 6,5 C 3,1 km/h (1 Bft)
02.10.2013 08:15 6,3 C 95 % 1017,7 hPa 0,0 l/m 1,3 km/h (1 Bft) NW 315 5,6 C 6,6 C 2,1 km/h (1 Bft)
02.10.2013 08:20 6,3 C 95 % 1017,7 hPa 0,0 l/m 1,9 km/h (1 Bft) N-NO 22 5,6 C 6,6 C 4,7 km/h (1 Bft)
02.10.2013 08:25 6,4 C 95 % 1017,9 hPa 0,0 l/m 2,1 km/h (1 Bft) N 360 5,7 C 6,6 C 3,2 km/h (1 Bft)
02.10.2013 08:30 6,4 C 95 % 1017,9 hPa 0,0 l/m 1,3 km/h (1 Bft) N 360 5,7 C 6,6 C 0,0 km/h (0 Bft)
02.10.2013 08:35 6,5 C 95 % 1017,9 hPa 0,0 l/m 1,0 km/h (0 Bft) N-NW 337 5,8 C 6,7 C 0,0 km/h (0 Bft)
02.10.2013 08:40 6,5 C 95 % 1017,9 hPa 0,0 l/m 1,1 km/h (1 Bft) N-NW 337 5,8 C 6,7 C 6,3 km/h (2 Bft)
02.10.2013 08:45 6,5 C 95 % 1017,8 hPa 0,0 l/m 1,4 km/h (1 Bft) N 360 5,8 C 6,7 C 2,4 km/h (1 Bft)
02.10.2013 08:50 6,6 C 95 % 1017,8 hPa 0,0 l/m 1,8 km/h (1 Bft) W-NW 292 5,9 C 6,8 C 3,7 km/h (1 Bft)
02.10.2013 08:55 6,6 C 95 % 1017,8 hPa 0,0 l/m 2,1 km/h (1 Bft) NW 315 5,9 C 6,8 C 1,8 km/h (1 Bft)
02.10.2013 09:00 6,6 C 95 % 1017,8 hPa 0,0 l/m 2,9 km/h (1 Bft) NW 315 5,9 C 6,8 C 4,5 km/h (1 Bft)
02.10.2013 09:05 6,5 C 95 % 1017,8 hPa 0,0 l/m 3,2 km/h (1 Bft) NW 315 5,8 C 6,7 C 4,2 km/h (1 Bft)
02.10.2013 09:10 6,5 C 95 % 1017,8 hPa 0,0 l/m 2,7 km/h (1 Bft) N-NW 337 5,8 C 6,8 C 4,8 km/h (1 Bft)
02.10.2013 09:15 6,4 C 95 % 1017,8 hPa 0,0 l/m 2,4 km/h (1 Bft) N 360 5,7 C 6,8 C 2,9 km/h (1 Bft)
02.10.2013 09:20 6,5 C 95 % 1017,8 hPa 0,0 l/m 2,9 km/h (1 Bft) W-NW 292 5,8 C 6,8 C 0,0 km/h (0 Bft)
02.10.2013 09:25 6,5 C 95 % 1017,9 hPa 0,0 l/m 2,7 km/h (1 Bft) N-NW 337 5,8 C 6,8 C 4,3 km/h (1 Bft)
02.10.2013 09:30 6,5 C 95 % 1017,9 hPa 0,0 l/m 2,9 km/h (1 Bft) N-NO 22 5,8 C 6,9 C 2,7 km/h (1 Bft)
02.10.2013 09:35 6,6 C 95 % 1017,9 hPa 0,0 l/m 2,4 km/h (1 Bft) N-NO 22 5,9 C 6,9 C 1,6 km/h (1 Bft)
02.10.2013 09:40 6,7 C 95 % 1017,9 hPa 0,0 l/m 1,6 km/h (1 Bft) N-NO 22 6,0 C 7,0 C 0,0 km/h (0 Bft)
02.10.2013 09:45 6,7 C 95 % 1018,1 hPa 0,0 l/m 2,1 km/h (1 Bft) W 270 6,0 C 7,1 C 3,2 km/h (1 Bft)
02.10.2013 09:50 6,7 C 95 % 1018,1 hPa 0,0 l/m 2,4 km/h (1 Bft) N 360 6,0 C 7,1 C 3,7 km/h (1 Bft)
02.10.2013 09:55 6,7 C 95 % 1018,1 hPa 0,0 l/m 3,4 km/h (1 Bft) O-NO 67 6,0 C 7,1 C 7,9 km/h (2 Bft)
02.10.2013 10:00 6,8 C 95 % 1018,1 hPa 0,0 l/m 3,5 km/h (1 Bft) N 360 6,1 C 7,2 C 5,8 km/h (2 Bft)
02.10.2013 10:05 6,8 C 95 % 1018,4 hPa 0,0 l/m 4,0 km/h (1 Bft) N-NW 337 6,1 C 6,9 C 8,4 km/h (2 Bft)
02.10.2013 10:10 6,9 C 95 % 1018,4 hPa 0,0 l/m 3,9 km/h (1 Bft) N-NW 337 6,2 C 7,1 C 2,7 km/h (1 Bft)
02.10.2013 10:15 7,0 C 95 % 1018,4 hPa 0,0 l/m 2,3 km/h (1 Bft) NW 315 6,3 C 7,4 C 1,9 km/h (1 Bft)
02.10.2013 10:20 6,9 C 95 % 1018,4 hPa 0,0 l/m 1,9 km/h (1 Bft) W-NW 292 6,2 C 7,5 C 0,0 km/h (0 Bft)
02.10.2013 10:25 7,0 C 95 % 1018,6 hPa 0,0 l/m 2,3 km/h (1 Bft) W-NW 292 6,3 C 7,5 C 6,3 km/h (2 Bft)
02.10.2013 10:30 6,9 C 95 % 1018,6 hPa 0,0 l/m 3,1 km/h (1 Bft) N-NW 337 6,2 C 7,5 C 6,4 km/h (2 Bft)
02.10.2013 10:35 7,0 C 94 % 1018,6 hPa 0,0 l/m 3,9 km/h (1 Bft) W-NW 292 6,1 C 7,3 C 3,7 km/h (1 Bft)
02.10.2013 10:40 6,9 C 95 % 1018,6 hPa 0,0 l/m 3,5 km/h (1 Bft) N-NW 337 6,2 C 7,5 C 2,9 km/h (1 Bft)
02.10.2013 10:45 7,0 C 94 % 1018,7 hPa 0,0 l/m 3,7 km/h (1 Bft) N-NW 337 6,1 C 7,4 C 4,8 km/h (1 Bft)
02.10.2013 10:50 7,0 C 94 % 1018,7 hPa 0,0 l/m 3,1 km/h (1 Bft) W-NW 292 6,1 C 7,6 C 3,4 km/h (1 Bft)
02.10.2013 10:55 7,2 C 94 % 1018,7 hPa 0,0 l/m 2,7 km/h (1 Bft) N-NW 337 6,3 C 7,8 C 6,3 km/h (2 Bft)
02.10.2013 11:00 7,1 C 94 % 1018,7 hPa 0,0 l/m 3,2 km/h (1 Bft) N 360 6,2 C 7,8 C 3,1 km/h (1 Bft)
02.10.2013 11:05 7,1 C 94 % 1018,9 hPa 0,0 l/m 4,2 km/h (1 Bft) N-NW 337 6,2 C 7,4 C 5,5 km/h (1 Bft)
02.10.2013 11:10 7,0 C 94 % 1018,9 hPa 0,0 l/m 3,9 km/h (1 Bft) W-NW 292 6,1 C 7,6 C 6,3 km/h (2 Bft)
02.10.2013 11:15 7,1 C 93 % 1018,9 hPa 0,0 l/m 3,5 km/h (1 Bft) N-NW 337 6,0 C 7,6 C 3,1 km/h (1 Bft)
02.10.2013 11:20 7,0 C 93 % 1018,9 hPa 0,0 l/m 3,9 km/h (1 Bft) SO 135 5,9 C 7,5 C 5,8 km/h (2 Bft)
02.10.2013 11:25 7,1 C 93 % 1019,1 hPa 0,0 l/m 3,2 km/h (1 Bft) NW 315 6,0 C 7,7 C 5,1 km/h (1 Bft)
02.10.2013 11:30 7,2 C 93 % 1019,1 hPa 0,0 l/m 3,4 km/h (1 Bft) W-NW 292 6,1 C 7,8 C 3,7 km/h (1 Bft)
02.10.2013 11:35 7,2 C 92 % 1019,1 hPa 0,0 l/m 3,5 km/h (1 Bft) N 360 6,0 C 7,8 C 4,8 km/h (1 Bft)
02.10.2013 11:40 7,3 C 92 % 1019,1 hPa 0,0 l/m 4,2 km/h (1 Bft) N 360 6,1 C 7,7 C 5,8 km/h (2 Bft)
02.10.2013 11:45 7,4 C 92 % 1019,1 hPa 0,0 l/m 4,0 km/h (1 Bft) W-NW 292 6,2 C 7,8 C 4,0 km/h (1 Bft)
02.10.2013 11:50 7,5 C 92 % 1019,1 hPa 0,0 l/m 3,2 km/h (1 Bft) W-NW 292 6,3 C 8,1 C 6,1 km/h (2 Bft)
02.10.2013 11:55 7,5 C 92 % 1019,1 hPa 0,0 l/m 2,6 km/h (1 Bft) N-NO 22 6,3 C 8,2 C 0,0 km/h (0 Bft)
02.10.2013 12:00 7,5 C 91 % 1019,1 hPa 0,0 l/m 2,9 km/h (1 Bft) N-NW 337 6,1 C 8,3 C 6,9 km/h (2 Bft)
02.10.2013 12:05 7,4 C 91 % 1019,1 hPa 0,0 l/m 3,4 km/h (1 Bft) N 360 6,0 C 8,3 C 10,1 km/h (2 Bft)
02.10.2013 12:10 7,6 C 91 % 1019,1 hPa 0,0 l/m 3,7 km/h (1 Bft) N 360 6,2 C 8,3 C 2,7 km/h (1 Bft)
02.10.2013 12:15 7,5 C 90 % 1019,1 hPa 0,0 l/m 3,7 km/h (1 Bft) N 360 6,0 C 8,4 C 5,5 km/h (1 Bft)
02.10.2013 12:20 7,7 C 90 % 1019,1 hPa 0,0 l/m 3,2 km/h (1 Bft) O 90 6,2 C 8,4 C 3,2 km/h (1 Bft)
02.10.2013 12:25 7,7 C 90 % 1019,4 hPa 0,0 l/m 2,9 km/h (1 Bft) N-NW 337 6,2 C 8,4 C 3,1 km/h (1 Bft)
02.10.2013 12:30 7,7 C 90 % 1019,4 hPa 0,0 l/m 3,2 km/h (1 Bft) NW 315 6,2 C 8,4 C 5,8 km/h (2 Bft)
02.10.2013 12:35 7,8 C 90 % 1019,4 hPa 0,0 l/m 3,5 km/h (1 Bft) W-NW 292 6,3 C 8,5 C 4,2 km/h (1 Bft)
02.10.2013 12:40 7,9 C 89 % 1019,4 hPa 0,0 l/m 3,4 km/h (1 Bft) N-NW 337 6,2 C 8,5 C 2,9 km/h (1 Bft)
02.10.2013 12:45 7,8 C 89 % 1019,7 hPa 0,0 l/m 3,2 km/h (1 Bft) NW 315 6,1 C 8,6 C 5,5 km/h (1 Bft)
02.10.2013 12:50 7,9 C 89 % 1019,7 hPa 0,0 l/m 3,9 km/h (1 Bft) W 270 6,2 C 8,6 C 6,8 km/h (2 Bft)
02.10.2013 12:55 8,0 C 88 % 1019,7 hPa 0,0 l/m 3,7 km/h (1 Bft) N-NW 337 6,1 C 8,7 C 4,8 km/h (1 Bft)
02.10.2013 13:00 8,0 C 88 % 1019,7 hPa 0,0 l/m 4,2 km/h (1 Bft) W-NW 292 6,1 C 8,6 C 5,8 km/h (2 Bft)
02.10.2013 13:05 8,0 C 88 % 1019,7 hPa 0,0 l/m 4,2 km/h (1 Bft) W 270 6,1 C 8,4 C 2,9 km/h (1 Bft)
02.10.2013 13:10 8,1 C 88 % 1019,7 hPa 0,0 l/m 4,2 km/h (1 Bft) N-NW 337 6,2 C 8,6 C 8,4 km/h (2 Bft)
02.10.2013 13:15 8,0 C 87 % 1019,7 hPa 0,0 l/m 3,5 km/h (1 Bft) N-NO 22 6,0 C 8,7 C 2,9 km/h (1 Bft)
02.10.2013 13:20 8,0 C 87 % 1019,7 hPa 0,0 l/m 3,2 km/h (1 Bft) NW 315 6,0 C 8,7 C 4,0 km/h (1 Bft)
02.10.2013 13:25 8,1 C 87 % 1019,6 hPa 0,0 l/m 3,9 km/h (1 Bft) W 270 6,1 C 8,7 C 5,1 km/h (1 Bft)
02.10.2013 13:30 8,1 C 87 % 1019,6 hPa 0,0 l/m 3,5 km/h (1 Bft) N-NW 337 6,1 C 8,7 C 3,9 km/h (1 Bft)
02.10.2013 13:35 8,0 C 87 % 1019,6 hPa 0,0 l/m 3,4 km/h (1 Bft) N-NO 22 6,0 C 8,8 C 2,7 km/h (1 Bft)
02.10.2013 13:40 8,1 C 86 % 1019,6 hPa 0,0 l/m 3,2 km/h (1 Bft) NW 315 5,9 C 8,8 C 3,7 km/h (1 Bft)
02.10.2013 13:45 8,1 C 86 % 1019,8 hPa 0,0 l/m 3,7 km/h (1 Bft) N-NW 337 5,9 C 8,9 C 5,8 km/h (2 Bft)
02.10.2013 13:50 7,9 C 86 % 1019,8 hPa 0,0 l/m 4,2 km/h (1 Bft) W-SW 247 5,7 C 8,8 C 6,4 km/h (2 Bft)
02.10.2013 13:55 8,0 C 85 % 1019,8 hPa 0,0 l/m 4,5 km/h (1 Bft) W-NW 292 5,6 C 8,5 C 5,5 km/h (1 Bft)
02.10.2013 14:00 8,0 C 85 % 1019,8 hPa 0,0 l/m 4,2 km/h (1 Bft) W-NW 292 5,6 C 8,7 C 7,7 km/h (2 Bft)
02.10.2013 14:05 8,2 C 85 % 1019,8 hPa 0,0 l/m 4,3 km/h (1 Bft) N-NW 337 5,8 C 8,5 C 0,0 km/h (0 Bft)
02.10.2013 14:10 8,2 C 85 % 1019,8 hPa 0,0 l/m 4,5 km/h (1 Bft) W 270 5,8 C 8,7 C 4,5 km/h (1 Bft)
02.10.2013 14:15 8,3 C 85 % 1019,8 hPa 0,0 l/m 4,0 km/h (1 Bft) W-NW 292 5,9 C 8,9 C 11,4 km/h (2 Bft)
02.10.2013 14:20 8,3 C 85 % 1019,8 hPa 0,0 l/m 4,7 km/h (1 Bft) W-NW 292 5,9 C 8,7 C 4,8 km/h (1 Bft)
02.10.2013 14:25 8,2 C 85 % 1019,7 hPa 0,0 l/m 4,3 km/h (1 Bft) N 360 5,8 C 8,8 C 4,3 km/h (1 Bft)
02.10.2013 14:30 8,3 C 85 % 1019,7 hPa 0,0 l/m 3,9 km/h (1 Bft) N-NW 337 5,9 C 9,2 C 7,9 km/h (2 Bft)
02.10.2013 14:35 8,5 C 84 % 1019,7 hPa 0,0 l/m 4,3 km/h (1 Bft) N-NW 337 6,0 C 9,2 C 5,8 km/h (2 Bft)
02.10.2013 14:40 8,5 C 84 % 1019,7 hPa 0,0 l/m 4,7 km/h (1 Bft) N 360 6,0 C 9,0 C 6,4 km/h (2 Bft)
02.10.2013 14:45 8,5 C 83 % 1019,9 hPa 0,0 l/m 4,5 km/h (1 Bft) W-NW 292 5,8 C 9,2 C 9,2 km/h (2 Bft)
02.10.2013 14:50 8,6 C 83 % 1019,9 hPa 0,0 l/m 5,0 km/h (1 Bft) N-NW 337 5,9 C 9,1 C 7,7 km/h (2 Bft)
02.10.2013 14:55 8,6 C 83 % 1019,9 hPa 0,0 l/m 4,7 km/h (1 Bft) W-NW 292 5,9 C 9,2 C 8,2 km/h (2 Bft)
02.10.2013 15:00 8,8 C 82 % 1019,9 hPa 0,0 l/m 4,2 km/h (1 Bft) S-SO 157 5,9 C 9,4 C 3,2 km/h (1 Bft)
02.10.2013 15:05 9,1 C 80 % 1019,9 hPa 0,0 l/m 4,0 km/h (1 Bft) N-NO 22 5,8 C 9,9 C 5,0 km/h (1 Bft)
02.10.2013 15:10 9,3 C 80 % 1019,9 hPa 0,0 l/m 3,1 km/h (1 Bft) W-NW 292 6,0 C 10,4 C 1,8 km/h (1 Bft)
02.10.2013 15:15 9,8 C 80 % 1019,9 hPa 0,0 l/m 2,9 km/h (1 Bft) N-NW 337 6,5 C 11,0 C 2,6 km/h (1 Bft)
02.10.2013 15:20 9,8 C 79 % 1019,9 hPa 0,0 l/m 3,4 km/h (1 Bft) N-NW 337 6,3 C 11,3 C 7,7 km/h (2 Bft)
02.10.2013 15:25 9,7 C 79 % 1020,6 hPa 0,0 l/m 4,3 km/h (1 Bft) N-NO 22 6,2 C 11,3 C 3,2 km/h (1 Bft)
02.10.2013 15:30 10,0 C 79 % 1020,6 hPa 0,0 l/m 4,0 km/h (1 Bft) W-NW 292 6,5 C 11,5 C 2,4 km/h (1 Bft)
02.10.2013 15:35 10,2 C 78 % 1020,6 hPa 0,0 l/m 2,6 km/h (1 Bft) W 270 6,5 C 11,8 C 3,2 km/h (1 Bft)
02.10.2013 15:40 10,2 C 77 % 1020,6 hPa 0,0 l/m 2,7 km/h (1 Bft) W-NW 292 6,4 C 12,0 C 5,0 km/h (1 Bft)
02.10.2013 15:45 10,1 C 77 % 1020,6 hPa 0,0 l/m 3,4 km/h (1 Bft) N-NW 337 6,3 C 11,7 C 2,7 km/h (1 Bft)
02.10.2013 15:50 9,8 C 78 % 1020,6 hPa 0,0 l/m 3,5 km/h (1 Bft) W-NW 292 6,1 C 11,7 C 5,8 km/h (2 Bft)
02.10.2013 15:55 9,6 C 78 % 1020,6 hPa 0,0 l/m 4,0 km/h (1 Bft) N-NW 337 6,0 C 11,9 C 11,7 km/h (2 Bft)
02.10.2013 16:00 9,8 C 79 % 1020,6 hPa 0,0 l/m 4,5 km/h (1 Bft) W-NW 292 6,3 C 12,1 C 7,7 km/h (2 Bft)
02.10.2013 16:05 10,1 C 79 % 1020,4 hPa 0,0 l/m 3,2 km/h (1 Bft) W-NW 292 6,6 C 12,7 C 6,6 km/h (2 Bft)
02.10.2013 16:10 10,1 C 79 % 1020,4 hPa 0,0 l/m 2,9 km/h (1 Bft) W-NW 292 6,6 C 13,2 C 2,4 km/h (1 Bft)
02.10.2013 16:15 10,1 C 79 % 1020,4 hPa 0,0 l/m 2,3 km/h (1 Bft) N-NW 337 6,6 C 14,2 C 7,1 km/h (2 Bft)
02.10.2013 16:20 9,9 C 78 % 1020,4 hPa 0,0 l/m 2,6 km/h (1 Bft) N 360 6,2 C 14,6 C 3,9 km/h (1 Bft)
02.10.2013 16:25 9,8 C 79 % 1020,1 hPa 0,0 l/m 4,0 km/h (1 Bft) N-NW 337 6,3 C 14,9 C 5,0 km/h (1 Bft)
02.10.2013 16:30 9,7 C 79 % 1020,1 hPa 0,0 l/m 3,9 km/h (1 Bft) N 360 6,2 C 14,9 C 3,4 km/h (1 Bft)
02.10.2013 16:35 9,8 C 79 % 1020,1 hPa 0,0 l/m 4,7 km/h (1 Bft) N-NO 22 6,3 C 14,6 C 7,6 km/h (2 Bft)
02.10.2013 16:40 9,8 C 79 % 1020,1 hPa 0,0 l/m 5,0 km/h (1 Bft) W-NW 292 6,3 C 14,4 C 3,7 km/h (1 Bft)
02.10.2013 16:45 9,7 C 79 % 1020,1 hPa 0,0 l/m 4,5 km/h (1 Bft) N 360 6,2 C 14,5 C 2,4 km/h (1 Bft)
02.10.2013 16:50 9,7 C 80 % 1020,1 hPa 0,0 l/m 3,5 km/h (1 Bft) N-NO 22 6,4 C 14,9 C 0,0 km/h (0 Bft)
02.10.2013 16:55 9,7 C 80 % 1020,1 hPa 0,0 l/m 2,3 km/h (1 Bft) NW 315 6,4 C 15,2 C 3,1 km/h (1 Bft)
02.10.2013 17:00 9,8 C 80 % 1020,1 hPa 0,0 l/m 2,7 km/h (1 Bft) N-NW 337 6,5 C 15,3 C 3,5 km/h (1 Bft)
02.10.2013 17:05 10,1 C 79 % 1020,1 hPa 0,0 l/m 4,0 km/h (1 Bft) O-SO 112 6,6 C 15,0 C 5,5 km/h (1 Bft)
02.10.2013 17:10 10,0 C 79 % 1020,1 hPa 0,0 l/m 4,5 km/h (1 Bft) O 90 6,5 C 14,7 C 4,0 km/h (1 Bft)
02.10.2013 17:15 9,7 C 79 % 1020,1 hPa 0,0 l/m 4,7 km/h (1 Bft) N-NW 337 6,2 C 14,0 C 4,7 km/h (1 Bft)
02.10.2013 17:20 9,5 C 80 % 1020,1 hPa 0,0 l/m 4,0 km/h (1 Bft) N-NW 337 6,2 C 13,9 C 4,0 km/h (1 Bft)
02.10.2013 17:25 9,2 C 81 % 1020,4 hPa 0,0 l/m 1,8 km/h (1 Bft) N-NW 337 6,1 C 14,5 C 0,0 km/h (0 Bft)
02.10.2013 17:30 9,1 C 81 % 1020,4 hPa 0,0 l/m 1,4 km/h (1 Bft) N-NW 337 6,0 C 14,3 C 0,0 km/h (0 Bft)
02.10.2013 17:35 9,1 C 82 % 1020,4 hPa 0,0 l/m 1,8 km/h (1 Bft) W-NW 292 6,2 C 14,4 C 3,5 km/h (1 Bft)
02.10.2013 17:40 8,9 C 82 % 1020,4 hPa 0,0 l/m 1,3 km/h (1 Bft) N 360 6,0 C 14,3 C 3,5 km/h (1 Bft)
02.10.2013 17:45 9,1 C 82 % 1020,1 hPa 0,0 l/m 2,3 km/h (1 Bft) N-NW 337 6,2 C 13,9 C 4,0 km/h (1 Bft)
02.10.2013 17:50 9,2 C 82 % 1020,1 hPa 0,0 l/m 2,9 km/h (1 Bft) NO 45 6,3 C 13,9 C 7,1 km/h (2 Bft)
02.10.2013 17:55 9,3 C 82 % 1020,1 hPa 0,0 l/m 2,1 km/h (1 Bft) NO 45 6,4 C 13,6 C 0,0 km/h (0 Bft)
02.10.2013 18:00 9,2 C 82 % 1020,1 hPa 0,0 l/m 1,4 km/h (1 Bft) NO 45 6,3 C 13,5 C 0,0 km/h (0 Bft)
02.10.2013 18:05 8,8 C 83 % 1020,2 hPa 0,0 l/m 0,5 km/h (0 Bft) O-NO 67 6,1 C 13,0 C 0,0 km/h (0 Bft)
02.10.2013 18:10 8,7 C 83 % 1020,2 hPa 0,0 l/m 0,5 km/h (0 Bft) NO 45 6,0 C 12,7 C 0,0 km/h (0 Bft)
02.10.2013 18:15 8,4 C 83 % 1020,2 hPa 0,0 l/m 1,4 km/h (1 Bft) NO 45 5,7 C 11,8 C 4,3 km/h (1 Bft)
02.10.2013 18:20 8,1 C 84 % 1020,2 hPa 0,0 l/m 1,4 km/h (1 Bft) NO 45 5,6 C 11,0 C 0,0 km/h (0 Bft)
02.10.2013 18:25 7,7 C 84 % 1020,5 hPa 0,0 l/m 1,4 km/h (1 Bft) O 90 5,2 C 9,9 C 0,0 km/h (0 Bft)
02.10.2013 18:30 7,6 C 85 % 1020,5 hPa 0,0 l/m 0,8 km/h (0 Bft) NO 45 5,2 C 9,3 C 0,0 km/h (0 Bft)
02.10.2013 18:35 7,3 C 86 % 1020,5 hPa 0,0 l/m 0,3 km/h (0 Bft) O 90 5,1 C 8,5 C 0,0 km/h (0 Bft)
02.10.2013 18:40 7,1 C 86 % 1020,5 hPa 0,0 l/m 0,2 km/h (0 Bft) O 90 4,9 C 8,1 C 0,0 km/h (0 Bft)
02.10.2013 18:45 7,0 C 86 % 1020,4 hPa 0,0 l/m 0,2 km/h (0 Bft) O 90 4,8 C 7,6 C 0,0 km/h (0 Bft)
02.10.2013 18:50 7,1 C 87 % 1020,4 hPa 0,0 l/m 0,5 km/h (0 Bft) NO 45 5,1 C 7,3 C 2,6 km/h (1 Bft)
02.10.2013 18:55 6,8 C 88 % 1020,4 hPa 0,0 l/m 0,6 km/h (0 Bft) NO 45 5,0 C 7,0 C 0,0 km/h (0 Bft)
02.10.2013 19:00 6,7 C 88 % 1020,4 hPa 0,0 l/m 0,8 km/h (0 Bft) N-NW 337 4,9 C 6,9 C 4,7 km/h (1 Bft)
02.10.2013 19:05 6,6 C 88 % 1020,6 hPa 0,0 l/m 1,4 km/h (1 Bft) NO 45 4,8 C 6,6 C 4,3 km/h (1 Bft)
02.10.2013 19:10 6,3 C 88 % 1020,6 hPa 0,0 l/m 1,9 km/h (1 Bft) N-NO 22 4,5 C 6,6 C 6,1 km/h (2 Bft)
02.10.2013 19:15 6,4 C 88 % 1020,6 hPa 0,0 l/m 1,4 km/h (1 Bft) O 90 4,6 C 6,4 C 4,0 km/h (1 Bft)
02.10.2013 19:20 6,4 C 88 % 1020,6 hPa 0,0 l/m 1,6 km/h (1 Bft) N 360 4,6 C 6,4 C 2,1 km/h (1 Bft)
02.10.2013 19:25 6,2 C 88 % 1020,7 hPa 0,0 l/m 2,4 km/h (1 Bft) O-NO 67 4,4 C 6,3 C 3,5 km/h (1 Bft)
02.10.2013 19:30 6,2 C 89 % 1020,7 hPa 0,0 l/m 2,6 km/h (1 Bft) NO 45 4,5 C 6,3 C 0,0 km/h (0 Bft)
02.10.2013 19:35 5,8 C 89 % 1020,7 hPa 0,0 l/m 1,4 km/h (1 Bft) O-NO 67 4,1 C 6,0 C 1,8 km/h (1 Bft)
02.10.2013 19:40 5,8 C 89 % 1020,7 hPa 0,0 l/m 0,8 km/h (0 Bft) O-NO 67 4,1 C 5,8 C 2,6 km/h (1 Bft)
02.10.2013 19:45 5,8 C 89 % 1020,9 hPa 0,0 l/m 1,3 km/h (1 Bft) O-NO 67 4,1 C 5,7 C 0,0 km/h (0 Bft)
02.10.2013 19:50 6,0 C 89 % 1020,9 hPa 0,0 l/m 1,3 km/h (1 Bft) NO 45 4,3 C 5,7 C 1,9 km/h (1 Bft)
02.10.2013 19:55 5,9 C 89 % 1020,9 hPa 0,0 l/m 1,1 km/h (1 Bft) O 90 4,2 C 5,6 C 2,7 km/h (1 Bft)
02.10.2013 20:00 5,9 C 89 % 1020,9 hPa 0,0 l/m 1,4 km/h (1 Bft) NO 45 4,2 C 5,7 C 2,7 km/h (1 Bft)
02.10.2013 20:05 5,6 C 89 % 1020,8 hPa 0,0 l/m 1,6 km/h (1 Bft) O 90 3,9 C 5,5 C 0,0 km/h (0 Bft)
02.10.2013 20:10 5,6 C 89 % 1020,8 hPa 0,0 l/m 1,4 km/h (1 Bft) O 90 3,9 C 5,4 C 2,7 km/h (1 Bft)
02.10.2013 20:15 5,5 C 90 % 1020,8 hPa 0,0 l/m 1,6 km/h (1 Bft) NO 45 4,0 C 5,4 C 2,9 km/h (1 Bft)
02.10.2013 20:20 5,5 C 90 % 1020,8 hPa 0,0 l/m 1,1 km/h (1 Bft) N-NO 22 4,0 C 5,2 C 0,0 km/h (0 Bft)
02.10.2013 20:25 5,2 C 90 % 1020,9 hPa 0,0 l/m 0,6 km/h (0 Bft) N-NO 22 3,7 C 5,1 C 0,0 km/h (0 Bft)
02.10.2013 20:30 5,0 C 90 % 1020,9 hPa 0,0 l/m 0,6 km/h (0 Bft) S 180 3,5 C 4,9 C 1,6 km/h (1 Bft)
02.10.2013 20:35 5,0 C 90 % 1020,9 hPa 0,0 l/m 0,6 km/h (0 Bft) N-NO 22 3,5 C 4,7 C 0,0 km/h (0 Bft)
02.10.2013 20:40 5,0 C 90 % 1020,9 hPa 0,0 l/m 0,5 km/h (0 Bft) NO 45 3,5 C 4,5 C 0,0 km/h (0 Bft)
02.10.2013 20:45 4,9 C 91 % 1020,8 hPa 0,0 l/m 0,3 km/h (0 Bft) N-NO 22 3,6 C 4,4 C 0,0 km/h (0 Bft)
02.10.2013 20:50 4,9 C 91 % 1020,8 hPa 0,0 l/m 0,5 km/h (0 Bft) NO 45 3,6 C 4,4 C 0,0 km/h (0 Bft)
02.10.2013 20:55 4,8 C 91 % 1020,8 hPa 0,0 l/m 0,5 km/h (0 Bft) N-NO 22 3,5 C 4,3 C 0,0 km/h (0 Bft)
02.10.2013 21:00 4,7 C 91 % 1020,8 hPa 0,0 l/m 0,3 km/h (0 Bft) NO 45 3,4 C 4,3 C 0,0 km/h (0 Bft)
02.10.2013 21:05 4,6 C 91 % 1020,9 hPa 0,0 l/m 0,6 km/h (0 Bft) N 360 3,3 C 4,3 C 2,9 km/h (1 Bft)
02.10.2013 21:10 4,8 C 91 % 1020,9 hPa 0,0 l/m 1,4 km/h (1 Bft) NO 45 3,5 C 4,4 C 4,5 km/h (1 Bft)
02.10.2013 21:15 4,7 C 91 % 1020,9 hPa 0,0 l/m 1,9 km/h (1 Bft) O-NO 67 3,4 C 4,5 C 0,0 km/h (0 Bft)
02.10.2013 21:20 4,6 C 91 % 1020,9 hPa 0,0 l/m 1,8 km/h (1 Bft) N-NO 22 3,3 C 4,4 C 2,3 km/h (1 Bft)
02.10.2013 21:25 4,5 C 91 % 1020,9 hPa 0,0 l/m 1,3 km/h (1 Bft) N-NO 22 3,2 C 4,3 C 1,9 km/h (1 Bft)
02.10.2013 21:30 4,3 C 91 % 1020,9 hPa 0,0 l/m 1,3 km/h (1 Bft) NO 45 3,0 C 4,2 C 0,0 km/h (0 Bft)
02.10.2013 21:35 4,3 C 91 % 1020,9 hPa 0,0 l/m 1,8 km/h (1 Bft) SW 225 3,0 C 4,1 C 2,3 km/h (1 Bft)
02.10.2013 21:40 4,2 C 91 % 1020,9 hPa 0,0 l/m 1,8 km/h (1 Bft) N 360 2,9 C 4,0 C 3,1 km/h (1 Bft)
02.10.2013 21:45 4,1 C 91 % 1021,1 hPa 0,0 l/m 1,9 km/h (1 Bft) N-NO 22 2,8 C 3,8 C 2,4 km/h (1 Bft)
02.10.2013 21:50 4,1 C 92 % 1021,1 hPa 0,0 l/m 1,8 km/h (1 Bft) N-NW 337 2,9 C 3,8 C 1,6 km/h (1 Bft)
02.10.2013 21:55 4,2 C 92 % 1021,1 hPa 0,0 l/m 1,1 km/h (1 Bft) N 360 3,0 C 3,9 C 0,0 km/h (0 Bft)
02.10.2013 22:00 4,5 C 92 % 1021,1 hPa 0,0 l/m 1,3 km/h (1 Bft) N-NW 337 3,3 C 4,1 C 0,0 km/h (0 Bft)
02.10.2013 22:05 4,7 C 92 % 1021,2 hPa 0,0 l/m 1,6 km/h (1 Bft) N-NW 337 3,5 C 4,3 C 4,0 km/h (1 Bft)
02.10.2013 22:10 4,9 C 92 % 1021,2 hPa 0,0 l/m 2,3 km/h (1 Bft) N-NW 337 3,7 C 4,5 C 3,2 km/h (1 Bft)
02.10.2013 22:15 4,9 C 92 % 1021,2 hPa 0,0 l/m 2,9 km/h (1 Bft) N 360 3,7 C 4,7 C 6,4 km/h (2 Bft)
02.10.2013 22:20 4,9 C 91 % 1021,2 hPa 0,0 l/m 2,6 km/h (1 Bft) N 360 3,6 C 4,8 C 6,8 km/h (2 Bft)
02.10.2013 22:25 5,0 C 91 % 1021,2 hPa 0,0 l/m 2,9 km/h (1 Bft) N 360 3,7 C 4,8 C 3,1 km/h (1 Bft)
02.10.2013 22:30 5,0 C 91 % 1021,2 hPa 0,0 l/m 2,7 km/h (1 Bft) NW 315 3,7 C 4,9 C 3,5 km/h (1 Bft)
02.10.2013 22:35 5,0 C 90 % 1021,2 hPa 0,0 l/m 2,6 km/h (1 Bft) N-NW 337 3,5 C 4,9 C 3,9 km/h (1 Bft)
02.10.2013 22:40 5,0 C 90 % 1021,2 hPa 0,0 l/m 2,6 km/h (1 Bft) N-NW 337 3,5 C 4,9 C 2,1 km/h (1 Bft)
02.10.2013 22:45 5,0 C 90 % 1021,1 hPa 0,0 l/m 2,7 km/h (1 Bft) N-NW 337 3,5 C 5,0 C 3,9 km/h (1 Bft)
02.10.2013 22:50 5,0 C 90 % 1021,1 hPa 0,0 l/m 3,1 km/h (1 Bft) W-NW 292 3,5 C 4,9 C 4,5 km/h (1 Bft)
02.10.2013 22:55 5,0 C 89 % 1021,1 hPa 0,0 l/m 3,1 km/h (1 Bft) N-NW 337 3,3 C 4,9 C 3,4 km/h (1 Bft)
02.10.2013 23:00 5,0 C 89 % 1021,1 hPa 0,0 l/m 3,4 km/h (1 Bft) N-NW 337 3,3 C 4,8 C 6,1 km/h (2 Bft)
02.10.2013 23:05 5,0 C 89 % 1021,1 hPa 0,0 l/m 3,4 km/h (1 Bft) W-NW 292 3,3 C 4,9 C 2,9 km/h (1 Bft)
02.10.2013 23:10 5,0 C 89 % 1021,1 hPa 0,0 l/m 3,4 km/h (1 Bft) N-NW 337 3,3 C 4,9 C 4,0 km/h (1 Bft)
02.10.2013 23:15 5,0 C 89 % 1021,1 hPa 0,0 l/m 3,5 km/h (1 Bft) N-NW 337 3,3 C 4,8 C 4,5 km/h (1 Bft)
02.10.2013 23:20 5,0 C 89 % 1021,1 hPa 0,0 l/m 3,9 km/h (1 Bft) NW 315 3,3 C 4,7 C 6,9 km/h (2 Bft)
02.10.2013 23:25 5,0 C 89 % 1021,1 hPa 0,0 l/m 4,0 km/h (1 Bft) N-NW 337 3,3 C 4,6 C 4,0 km/h (1 Bft)
02.10.2013 23:30 5,0 C 89 % 1021,1 hPa 0,0 l/m 3,7 km/h (1 Bft) W-NW 292 3,3 C 4,9 C 4,2 km/h (1 Bft)
02.10.2013 23:35 5,0 C 89 % 1021,1 hPa 0,0 l/m 3,1 km/h (1 Bft) N-NO 22 3,3 C 5,2 C 3,5 km/h (1 Bft)
02.10.2013 23:40 5,0 C 89 % 1021,1 hPa 0,0 l/m 3,1 km/h (1 Bft) N-NW 337 3,3 C 5,2 C 4,8 km/h (1 Bft)
02.10.2013 23:45 5,0 C 89 % 1021,1 hPa 0,0 l/m 3,4 km/h (1 Bft) N-NW 337 3,3 C 4,9 C 4,5 km/h (1 Bft)
02.10.2013 23:50 5,0 C 89 % 1021,1 hPa 0,0 l/m 3,5 km/h (1 Bft) N 360 3,3 C 4,8 C 5,1 km/h (1 Bft)
02.10.2013 23:55 4,9 C 89 % 1021,1 hPa 0,0 l/m 4,0 km/h (1 Bft) N-NW 337 3,2 C 4,6 C 6,6 km/h (2 Bft)
_ Min-Zeit 21:50 15:45 00:20 - 04:55 - - 21:45 21:50 22:00
Minimum _ 4,1 C 77 % 1016,0 hPa - 0,0 km/h (0 Bft) - - 2,8 C 3,8 C 0,0 km/h (0 Bft)
_ Max-Zeit 15:40 03:45 22:40 23:55 16:40 - - 17:05 17:00 15:55
Maximum _ 10,2 C 96 % 1021,2 hPa 0,0 l/m 5,0 km/h
W-NW (1 Bft)
- - 6,6 C 15,3 C 11,7 km/h
N-NW (2 Bft)
Durchschnitt _ 6,9 C 90 % 1018,8 hPa #0,0 l/m 2,2 km/h (1 Bft) N-NW - 5,4 C 7,6 C 3,0 km/h (1 Bft)